When you browse on this site, cookies collect data to enhance your experience and personalize the content and advertising you see.
Visit our Privacy Policy to learn more. By continuing to use the site, you agree to this use of cookies and data.
  • En España
  • Lista de países
  • Para 7 días
  • Temperatura del agua
  • El tiempo en el mapa
  • Informadores
  • user-avatar
    Iniciar sesión

    Tiempo cada hora Porto Alegre

    Hoy, 5 Abril, Domingo

    Tiempo Temperatura Precipitaciones Viento Presión Humedad
    00:00 +19°C° 0 mm 2 mps 757 mmHg 74%
    01:00 +19°C° 0 mm 2 mps 757 mmHg 75%
    02:00 +19°C° 0 mm 1 mps 758 mmHg 76%
    03:00 +19°C° 0 mm 1 mps 758 mmHg 80%
    04:00 +18°C° 0 mm 1 mps 758 mmHg 80%
    05:00 +16°C° 0 mm 0 mps 758 mmHg 81%
    06:00 +16°C° 0 mm 0 mps 758 mmHg 81%
    07:00 +17°C° 0 mm 0 mps 758 mmHg 75%
    08:00 +19°C° 0 mm 0 mps 758 mmHg 68%
    09:00 +21°C° 0 mm 0 mps 758 mmHg 61%
    10:00 +23°C° 0 mm 0 mps 758 mmHg 54%
    11:00 +25°C° 0 mm 0 mps 758 mmHg 48%
    12:00 +27°C° 0 mm 0 mps 757 mmHg 41%
    13:00 +29°C° 0 mm 1 mps 757 mmHg 40%
    14:00 +30°C° 0 mm 1 mps 756 mmHg 38%
    15:00 +30°C° 0 mm 2 mps 756 mmHg 37%
    16:00 +29°C° 0 mm 2 mps 756 mmHg 44%
    17:00 +27°C° 0 mm 3 mps 756 mmHg 51%
    18:00 +26°C° 0 mm 4 mps 756 mmHg 58%
    19:00 +25°C° 0 mm 3 mps 756 mmHg 63%
    20:00 +24°C° 0 mm 3 mps 757 mmHg 68%
    21:00 +23°C° 0 mm 2 mps 757 mmHg 74%
    22:00 +21°C° 0 mm 2 mps 757 mmHg 76%
    23:00 +22°C° 0 mm 1 mps 757 mmHg 78%

    Mañana, 6 Abril, Lunes

    Tiempo Temperatura Precipitaciones Viento Presión Humedad
    00:00 +21°C° 0 mm 1 mps 757 mmHg 81%
    01:00 +21°C° 0 mm 1 mps 756 mmHg 79%
    02:00 +21°C° 0 mm 1 mps 756 mmHg 78%
    03:00 +19°C° 0 mm 0 mps 756 mmHg 77%
    04:00 +22°C° 0 mm 1 mps 756 mmHg 74%
    05:00 +22°C° 0 mm 1 mps 756 mmHg 71%
    06:00 +22°C° 0 mm 1 mps 756 mmHg 67%
    07:00 +21°C° 0.1 mm 2 mps 756 mmHg 68%
    08:00 +21°C° 0.1 mm 3 mps 757 mmHg 69%
    09:00 +21°C° 0.1 mm 4 mps 758 mmHg 70%
    10:00 +21°C° 0 mm 4 mps 758 mmHg 71%
    11:00 +22°C° 0 mm 3 mps 757 mmHg 72%
    12:00 +22°C° 0 mm 3 mps 757 mmHg 73%
    13:00 +22°C° 0 mm 3 mps 757 mmHg 70%
    14:00 +24°C° 0 mm 3 mps 757 mmHg 68%
    15:00 +25°C° 0 mm 2 mps 756 mmHg 65%
    16:00 +25°C° 0 mm 2 mps 756 mmHg 66%
    17:00 +25°C° 0 mm 2 mps 757 mmHg 66%
    18:00 +25°C° 0 mm 1 mps 757 mmHg 66%
    19:00 +24°C° 0.1 mm 3 mps 757 mmHg 71%
    20:00 +22°C° 0.1 mm 4 mps 758 mmHg 75%
    21:00 +21°C° 0.1 mm 5 mps 759 mmHg 79%
    22:00 +21°C° 0 mm 5 mps 760 mmHg 75%
    23:00 +20°C° 0 mm 5 mps 760 mmHg 71%

    Pasado mañana, 7 Abril, Martes

    Tiempo Temperatura Precipitaciones Viento Presión Humedad
    00:00 +20°C° 0 mm 5 mps 760 mmHg 67%
    01:00 +19°C° 0 mm 4 mps 761 mmHg 65%
    02:00 +19°C° 0 mm 4 mps 761 mmHg 64%
    03:00 +18°C° 0 mm 3 mps 761 mmHg 62%
    04:00 +18°C° 0 mm 3 mps 761 mmHg 62%
    05:00 +17°C° 0 mm 3 mps 761 mmHg 62%
    06:00 +17°C° 0 mm 3 mps 762 mmHg 62%
    07:00 +17°C° 0 mm 3 mps 762 mmHg 59%
    08:00 +17°C° 0 mm 3 mps 763 mmHg 56%
    09:00 +18°C° 0 mm 3 mps 763 mmHg 53%
    10:00 +19°C° 0 mm 3 mps 763 mmHg 47%
    11:00 +20°C° 0 mm 3 mps 763 mmHg 41%
    12:00 +21°C° 0 mm 3 mps 762 mmHg 35%
    13:00 +22°C° 0 mm 3 mps 762 mmHg 34%
    14:00 +22°C° 0 mm 3 mps 762 mmHg 32%
    15:00 +24°C° 0 mm 3 mps 761 mmHg 31%
    16:00 +22°C° 0 mm 3 mps 761 mmHg 34%
    17:00 +21°C° 0 mm 3 mps 761 mmHg 37%
    18:00 +20°C° 0 mm 2 mps 761 mmHg 40%
    19:00 +19°C° 0 mm 2 mps 762 mmHg 44%
    20:00 +18°C° 0 mm 2 mps 762 mmHg 47%
    21:00 +17°C° 0 mm 2 mps 762 mmHg 50%
    22:00 +17°C° 0 mm 2 mps 762 mmHg 54%
    23:00 +16°C° 0 mm 2 mps 762 mmHg 58%

    8 Abril, Miércoles

    Tiempo Temperatura Precipitaciones Viento Presión Humedad
    00:00 +16°C° 0 mm 2 mps 763 mmHg 62%
    01:00 +15°C° 0 mm 2 mps 762 mmHg 64%
    02:00 +15°C° 0 mm 2 mps 762 mmHg 66%
    03:00 +14°C° 0 mm 2 mps 762 mmHg 68%
    04:00 +14°C° 0 mm 2 mps 762 mmHg 69%
    05:00 +13°C° 0 mm 2 mps 762 mmHg 71%
    06:00 +13°C° 0 mm 2 mps 763 mmHg 72%
    07:00 +14°C° 0 mm 2 mps 763 mmHg 68%
    08:00 +15°C° 0 mm 2 mps 763 mmHg 64%
    09:00 +16°C° 0 mm 2 mps 763 mmHg 60%
    10:00 +18°C° 0 mm 2 mps 763 mmHg 54%
    11:00 +20°C° 0 mm 2 mps 763 mmHg 47%
    12:00 +21°C° 0 mm 2 mps 763 mmHg 40%
    13:00 +23°C° 0 mm 2 mps 762 mmHg 40%
    14:00 +22°C° 0 mm 3 mps 762 mmHg 40%
    15:00 +24°C° 0 mm 3 mps 761 mmHg 39%
    16:00 +22°C° 0 mm 3 mps 761 mmHg 44%
    17:00 +21°C° 0 mm 3 mps 761 mmHg 49%
    18:00 +20°C° 0 mm 3 mps 761 mmHg 54%
    19:00 +19°C° 0 mm 3 mps 761 mmHg 59%
    20:00 +18°C° 0 mm 3 mps 762 mmHg 63%
    21:00 +17°C° 0 mm 3 mps 762 mmHg 67%
    22:00 +17°C° 0 mm 2 mps 762 mmHg 70%
    23:00 +17°C° 0 mm 2 mps 762 mmHg 72%

    9 Abril, Jueves

    Tiempo Temperatura Precipitaciones Viento Presión Humedad
    00:00 +16°C° 0 mm 2 mps 762 mmHg 75%
    01:00 +16°C° 0 mm 2 mps 762 mmHg 76%
    02:00 +16°C° 0 mm 2 mps 762 mmHg 78%
    03:00 +15°C° 0 mm 2 mps 761 mmHg 80%
    04:00 +15°C° 0 mm 1 mps 761 mmHg 81%
    05:00 +14°C° 0 mm 1 mps 762 mmHg 83%
    06:00 +14°C° 0 mm 1 mps 762 mmHg 84%
    07:00 +15°C° 0 mm 1 mps 762 mmHg 79%
    08:00 +16°C° 0 mm 2 mps 762 mmHg 74%
    09:00 +17°C° 0 mm 2 mps 762 mmHg 70%
    10:00 +19°C° 0 mm 2 mps 762 mmHg 65%
    11:00 +21°C° 0 mm 2 mps 762 mmHg 60%
    12:00 +23°C° 0 mm 2 mps 762 mmHg 55%
    13:00 +24°C° 0.1 mm 3 mps 762 mmHg 54%
    14:00 +24°C° 0.1 mm 3 mps 761 mmHg 53%
    15:00 +24°C° 0.1 mm 3 mps 761 mmHg 52%
    16:00 +22°C° 0 mm 3 mps 761 mmHg 54%
    17:00 +22°C° 0 mm 3 mps 761 mmHg 56%
    18:00 +21°C° 0 mm 3 mps 761 mmHg 58%
    19:00 +20°C° 0.1 mm 3 mps 761 mmHg 65%
    20:00 +19°C° 0.1 mm 3 mps 761 mmHg 71%
    21:00 +18°C° 0.1 mm 3 mps 762 mmHg 77%
    22:00 +18°C° 0.1 mm 2 mps 762 mmHg 78%
    23:00 +18°C° 0.1 mm 2 mps 762 mmHg 80%

    10 Abril, Viernes

    Tiempo Temperatura Precipitaciones Viento Presión Humedad
    00:00 +18°C° 0.1 mm 2 mps 762 mmHg 81%
    01:00 +17°C° 0 mm 2 mps 761 mmHg 81%
    02:00 +18°C° 0 mm 1 mps 761 mmHg 82%
    03:00 +18°C° 0 mm 1 mps 761 mmHg 83%
    04:00 +16°C° 0.1 mm 1 mps 761 mmHg 83%
    05:00 +16°C° 0.1 mm 1 mps 761 mmHg 84%
    06:00 +16°C° 0.1 mm 1 mps 762 mmHg 85%
    07:00 +18°C° 0 mm 1 mps 762 mmHg 80%
    08:00 +19°C° 0 mm 1 mps 762 mmHg 75%
    09:00 +20°C° 0 mm 1 mps 762 mmHg 70%
    10:00 +22°C° 0 mm 1 mps 762 mmHg 63%
    11:00 +23°C° 0 mm 2 mps 762 mmHg 56%
    12:00 +25°C° 0 mm 2 mps 762 mmHg 49%
    13:00 +25°C° 0.1 mm 3 mps 762 mmHg 49%
    14:00 +25°C° 0.1 mm 3 mps 761 mmHg 50%
    15:00 +25°C° 0.1 mm 4 mps 761 mmHg 50%
    16:00 +23°C° 0 mm 4 mps 761 mmHg 53%
    17:00 +22°C° 0 mm 4 mps 761 mmHg 55%
    18:00 +21°C° 0 mm 3 mps 761 mmHg 58%
    19:00 +20°C° 0 mm 3 mps 761 mmHg 63%
    20:00 +20°C° 0 mm 3 mps 761 mmHg 68%
    21:00 +19°C° 0 mm 3 mps 761 mmHg 74%
    22:00 +18°C° 0 mm 3 mps 761 mmHg 75%
    23:00 +18°C° 0 mm 2 mps 761 mmHg 76%
    Mostrar más